Retour au catalogue

STARLINK-32441

ActifCommunicationsVLEO
NORAD 61668·PAYLOAD·🇺🇸 United States

Lancé Oct 26, 2024 depuis Cape Canaveral Space Force Station

Loading…

Prochains Passages (prochaines 24 heures)

TLE

FraisSource: CelesTrak SupGP

Époque: Sep 15, 2026, 03:39 UTC

1 61668C 24193H   26258.15256944 -.00000647  00000+0 -19105-4 0  2581
2 61668  53.1593 290.3879 0001185  93.0296 225.7295 15.34397316    12

Suivez STARLINK-32441 en temps réel avec AllMySat

Download on the App Store